FORTE

Satellite information

Favourite Embed

Satellite Type and Status

PAYLOADIN ORBIT

Key statistics

Satellite FORTE at a glance.

Uptime

10334

Days in orbit

Revolutions

≈ 14.3

Per day

Orbit

LEO

Low Earth Orbit

Inclination

70.0

Latest

Satellite identification and parameters

Extended collection of information and parameters for FORTE.

Object identification

Identified? True

Debris? False

Object name: FORTE

International designator: 1997-047A

Object number (NORAD): 24920

Object ID (CCSDS): 24920

Country: UNITED STATES OF AMERICA (US)

Current information (Y/N): Y

RCS size: LARGE

Orbital parameters

Period: 100.852 minutes

Inclination: 69.9539 deg

SMA: 7177.096 km

Apoapsis: 814.58 km

Periapsis: 783.343 km

RAAN: 73.0241 deg

Eccentricy: 0.00217616

Argument of periapsis: 179.6864 deg

Mean anomaly: 180.4276 deg

Mean motion: 14.27840144 rev/day

Mean motion (dot): 0.00000371 rev/day2

B* drag term: 0.00017302975 1/REarth

Two-line elements (TLE)

Creation date: Dec. 14, 2025, 3:07 a.m.

Reference frame: TEME

Reference center: EARTH

Epoch: Dec. 13, 2025, 4:02 p.m. UTC

TLE line 0: 0 FORTE

TLE line 1: 1 24920U 97047A 25347.66842092 .00000371 00000-0 17303-3 0 9990

TLE line 2: 2 24920 69.9539 73.0241 0021762 179.6864 180.4276 14.27840144472204

Live tracking on map

Real-time ground track for satellite FORTE.

In-orbit conjunctions

There are no conjunctions computed for FORTE, at the moment. Check back to stay up to date, as we update our databases every day.

Go to all conjunctions

Associated space launch

FORTE was lifted into orbit during the mission ‘Pegasus XL | Fast On-orbit Rapid Recording of Transient Events (FORTE)’, on board a Pegasus XL space rocket.

The launch took place on Aug. 29, 1997, 3:02 p.m. from Space Launch Complex 10E.

For more information about the launch, click the button.

Launch to space Pegasus XL | Fast On-orbit Rapid Recording of Transient Events (FORTE)
Pegasus XL | Fast On-orbit Rapid Recording of Transient Events (FORTE)

Agency: N/A

Status: Launch Successful

Launch date: Aug. 29, 1997, 3:02 p.m. UTC

Rocket: Pegasus XL

Launch pad: Space Launch Complex 10E

Location: Vandenberg SFB, CA, USA

...

Latest news about this satellite

There are no fresh news available about this satellite. Check back as we update our databases every day.


Newsletter sign-up

Weekly statistics, charts and insights to help you stay on top of the space industry.